TimeAKST,TemperatureF,Dew PointF,Humidity,Sea Level PressureIn,VisibilityMPH,Wind Direction,Wind SpeedMPH,Gust SpeedMPH,PrecipitationIn,Events,Conditions,WindDirDegrees,DateUTC
12:16 AM,-36.4,-9999,N/A,30.56,10.0,SE,5.8,-,N/A,,Unknown,140,2013-01-19 09:16:00
12:36 AM,-34.6,-9999,N/A,30.56,10.0,Calm,Calm,-,N/A,,Unknown,0,2013-01-19 09:36:00
12:56 AM,-34.6,-9999,N/A,30.56,10.0,Calm,Calm,-,N/A,,Unknown,0,2013-01-19 09:56:00
1:16 AM,-36.4,-9999,N/A,30.55,10.0,Calm,Calm,-,N/A,,Unknown,0,2013-01-19 10:16:00
1:36 AM,-36.4,-9999,N/A,30.54,10.0,Calm,Calm,-,N/A,,Unknown,0,2013-01-19 10:36:00
1:56 AM,-34.6,-9999,N/A,30.53,10.0,Calm,Calm,-,N/A,,Unknown,0,2013-01-19 10:56:00
2:16 AM,-34.6,-9999,N/A,30.53,10.0,Calm,Calm,-,N/A,,Unknown,0,2013-01-19 11:16:00
2:36 AM,-36.4,-9999,N/A,30.52,10.0,Calm,Calm,-,N/A,,Unknown,0,2013-01-19 11:36:00
2:56 AM,-34.6,-9999,N/A,30.51,10.0,Calm,Calm,-,N/A,,Unknown,0,2013-01-19 11:56:00
3:16 AM,-34.6,-9999,N/A,30.51,10.0,Calm,Calm,-,N/A,,Unknown,0,2013-01-19 12:16:00
3:36 AM,-34.6,-9999,N/A,30.50,10.0,Calm,Calm,-,N/A,,Unknown,0,2013-01-19 12:36:00
3:56 AM,-32.8,-9999,N/A,30.50,10.0,Calm,Calm,-,N/A,,Unknown,0,2013-01-19 12:56:00
4:16 AM,-32.8,-9999,N/A,30.49,10.0,Calm,Calm,-,N/A,,Unknown,0,2013-01-19 13:16:00
4:36 AM,-32.8,-9999,N/A,30.48,10.0,Calm,Calm,-,N/A,,Unknown,0,2013-01-19 13:36:00
4:56 AM,-32.8,-9999,N/A,30.48,10.0,Calm,Calm,-,N/A,,Unknown,0,2013-01-19 13:56:00
5:16 AM,-32.8,-9999,N/A,30.47,10.0,Calm,Calm,-,N/A,,Unknown,0,2013-01-19 14:16:00
5:36 AM,-34.6,-9999,N/A,30.46,10.0,Calm,Calm,-,N/A,,Unknown,0,2013-01-19 14:36:00
5:56 AM,-32.8,-9999,N/A,30.45,10.0,Calm,Calm,-,N/A,,Unknown,0,2013-01-19 14:56:00
6:16 AM,-34.6,-9999,N/A,30.44,10.0,Calm,Calm,-,N/A,,Unknown,0,2013-01-19 15:16:00
6:36 AM,-34.6,-9999,N/A,30.43,10.0,Calm,Calm,-,N/A,,Unknown,0,2013-01-19 15:36:00
6:56 AM,-34.6,-9999,N/A,30.42,10.0,Calm,Calm,-,N/A,,Unknown,0,2013-01-19 15:56:00
7:16 AM,-34.6,-9999,N/A,30.42,10.0,Calm,Calm,-,N/A,,Unknown,0,2013-01-19 16:16:00
7:36 AM,-32.8,-9999,N/A,30.41,10.0,Calm,Calm,-,N/A,,Unknown,0,2013-01-19 16:36:00
7:56 AM,-34.6,-9999,N/A,30.40,10.0,Calm,Calm,-,N/A,,Unknown,0,2013-01-19 16:56:00
8:16 AM,-32.8,-9999,N/A,30.39,10.0,Calm,Calm,-,N/A,,Unknown,0,2013-01-19 17:16:00
8:36 AM,-32.8,-9999,N/A,30.38,10.0,Calm,Calm,-,N/A,,Unknown,0,2013-01-19 17:36:00
8:56 AM,-29.2,-9999,N/A,30.38,10.0,Calm,Calm,-,N/A,,Unknown,0,2013-01-19 17:56:00
9:16 AM,-29.2,-9999,N/A,30.38,10.0,Calm,Calm,-,N/A,,Unknown,0,2013-01-19 18:16:00
9:36 AM,-29.2,-9999,N/A,30.37,10.0,Calm,Calm,-,N/A,,Unknown,0,2013-01-19 18:36:00
9:56 AM,-29.2,-9999,N/A,30.36,10.0,Calm,Calm,-,N/A,,Unknown,0,2013-01-19 18:56:00
10:16 AM,-29.2,-9999,N/A,30.36,10.0,Calm,Calm,-,N/A,,Unknown,0,2013-01-19 19:16:00
10:36 AM,-29.2,-9999,N/A,30.35,10.0,Calm,Calm,-,N/A,,Unknown,0,2013-01-19 19:36:00
10:56 AM,-27.4,-9999,N/A,30.35,10.0,Calm,Calm,-,N/A,,Unknown,0,2013-01-19 19:56:00
11:16 AM,-27.4,-9999,N/A,30.35,10.0,Calm,Calm,-,N/A,,Unknown,0,2013-01-19 20:16:00
11:36 AM,-25.6,-9999,N/A,30.34,10.0,Calm,Calm,-,N/A,,Unknown,0,2013-01-19 20:36:00
11:56 AM,-25.6,-9999,N/A,30.33,10.0,Calm,Calm,-,N/A,,Unknown,0,2013-01-19 20:56:00
12:16 PM,-20.2,-9999,N/A,30.32,10.0,Calm,Calm,-,N/A,,Unknown,0,2013-01-19 21:16:00
12:36 PM,-22.0,-9999,N/A,30.32,10.0,Calm,Calm,-,N/A,,Unknown,0,2013-01-19 21:36:00
12:56 PM,-7.6,-13.0,77,30.31,10.0,ESE,6.9,-,N/A,,Unknown,120,2013-01-19 21:56:00
1:16 PM,-11.2,-9999,N/A,30.31,10.0,South,9.2,-,N/A,,Unknown,170,2013-01-19 22:16:00
1:36 PM,-11.2,-16.6,77,30.29,10.0,SSE,8.1,-,N/A,,Unknown,160,2013-01-19 22:36:00
1:56 PM,-7.6,-9.4,92,30.28,10.0,SE,10.4,-,N/A,,Unknown,140,2013-01-19 22:56:00
2:16 PM,3.2,3.2,100,30.27,10.0,ESE,17.3,-,N/A,,Unknown,110,2013-01-19 23:16:00
2:36 PM,3.2,-2.2,78,30.27,10.0,ESE,12.7,18.4,N/A,,Unknown,110,2013-01-19 23:36:00
2:56 PM,3.2,-5.8,66,30.25,10.0,ESE,15.0,21.9,N/A,,Unknown,110,2013-01-19 23:56:00
3:16 PM,6.8,-0.4,72,30.25,10.0,ESE,15.0,23.0,N/A,,Unknown,110,2013-01-20 00:16:00
3:36 PM,6.8,-0.4,72,30.24,10.0,ESE,18.4,24.2,N/A,,Unknown,110,2013-01-20 00:36:00
3:56 PM,6.8,-2.2,67,30.24,9.0,East,16.1,21.9,N/A,,Unknown,100,2013-01-20 00:56:00
4:16 PM,6.8,-0.4,72,30.23,10.0,East,13.8,23.0,N/A,,Unknown,100,2013-01-20 01:16:00
4:36 PM,6.8,1.4,79,30.22,10.0,East,18.4,23.0,N/A,,Unknown,100,2013-01-20 01:36:00
4:56 PM,6.8,1.4,79,30.21,10.0,East,17.3,26.5,N/A,,Unknown,100,2013-01-20 01:56:00
5:16 PM,6.8,1.4,79,30.20,10.0,East,17.3,23.0,N/A,,Unknown,100,2013-01-20 02:16:00
5:36 PM,6.8,1.4,79,30.19,9.0,ESE,15.0,24.2,N/A,,Unknown,110,2013-01-20 02:36:00
5:56 PM,6.8,1.4,79,30.19,10.0,ESE,13.8,24.2,N/A,,Unknown,110,2013-01-20 02:56:00
6:16 PM,8.6,1.4,73,30.18,10.0,ESE,16.1,23.0,N/A,,Unknown,120,2013-01-20 03:16:00
6:36 PM,8.6,1.4,73,30.17,10.0,SE,17.3,23.0,N/A,,Unknown,130,2013-01-20 03:36:00
6:56 PM,8.6,1.4,73,30.17,10.0,ESE,15.0,-,N/A,,Unknown,120,2013-01-20 03:56:00
7:16 PM,8.6,1.4,73,30.17,10.0,ESE,15.0,19.6,N/A,,Unknown,110,2013-01-20 04:16:00
7:36 PM,8.6,1.4,73,30.16,10.0,SE,12.7,18.4,N/A,,Unknown,140,2013-01-20 04:36:00
7:56 PM,8.6,1.4,73,30.15,10.0,SE,16.1,-,N/A,,Unknown,130,2013-01-20 04:56:00
8:16 PM,8.6,3.2,79,30.15,10.0,ESE,18.4,21.9,N/A,,Unknown,120,2013-01-20 05:16:00
8:36 PM,8.6,1.4,73,30.14,10.0,ESE,18.4,25.3,N/A,,Unknown,120,2013-01-20 05:36:00
8:56 PM,8.6,1.4,73,30.12,10.0,SE,20.7,27.6,N/A,,Unknown,130,2013-01-20 05:56:00
9:16 PM,8.6,1.4,73,30.12,10.0,SE,21.9,29.9,N/A,,Unknown,130,2013-01-20 06:16:00
9:36 PM,8.6,1.4,73,30.12,10.0,SE,21.9,28.8,N/A,,Unknown,130,2013-01-20 06:36:00
9:56 PM,8.6,1.4,73,30.11,10.0,ESE,27.6,-,N/A,,Unknown,120,2013-01-20 06:56:00
10:16 PM,8.6,1.4,73,30.10,9.0,ESE,24.2,32.2,N/A,,Unknown,120,2013-01-20 07:16:00
10:36 PM,8.6,1.4,73,30.09,10.0,ESE,20.7,31.1,N/A,,Unknown,120,2013-01-20 07:36:00
10:56 PM,8.6,-0.4,67,30.09,10.0,ESE,21.9,31.1,N/A,,Unknown,120,2013-01-20 07:56:00
11:16 PM,8.6,-0.4,67,30.09,10.0,ESE,19.6,26.5,N/A,,Unknown,120,2013-01-20 08:16:00
11:36 PM,8.6,-0.4,67,30.08,10.0,SE,26.5,32.2,N/A,,Unknown,130,2013-01-20 08:36:00
11:56 PM,8.6,-0.4,67,30.07,10.0,SE,23.0,36.8,N/A,,Unknown,140,2013-01-20 08:56:00